Change the Weather History Date:

Monday, December 30, 2013

  Actual Average (KFLG) Record (KFLG)
Temperature  
Mean Temperature 34 °F 29 °F  
Max Temperature 53 °F 42 °F 62 °F (1917)
Min Temperature 15 °F 17 °F -16 °F (1911)
Degree Days  
Heating Degree Days 31 36  
Month to date heating degree days 1061  
Since 1 July heating degree days 2793  
Cooling Degree Days 0 0  
Month to date cooling degree days 0  
Year to date cooling degree days 117  
Moisture  
Dew Point 11 °F    
Average Humidity 48    
Maximum Humidity 74    
Minimum Humidity 15    
Precipitation  
Precipitation 0.00 in 0.07 in 2.95 in (1951)
Month to date precipitation 1.80  
Year to date precipitation 21.79  
Snow  
Snow 0.00 in 0.60 in 31.00 in (1915)
Month to date snowfall 16.3  
Since 1 July snowfall 28.5  
Snow Depth -    
Sea Level Pressure  
Sea Level Pressure 30.36 in    
Wind  
Wind Speed 7 mph (SE)    
Max Wind Speed 10 mph    
Max Gust Speed -    
Visibility 10 miles    
Events      
T = Trace of Precipitation, MM = Missing Value Source: NWS Daily Summary

Daily Weather History Graph

Daily Weather History Graph

Search for Another Location

Airport or City:

Trip Planner

Search our weather history database for the weather conditions in past years. The results will help you decide how hot, cold, wet, or windy it might be!

Date:

Astronomy

Dec. 30, 2013 Rise Set
Actual Time 7:37 AM MST 5:25 PM MST
Civil Twilight 7:08 AM MST 5:54 PM MST
Nautical Twilight 6:37 AM MST 6:25 PM MST
Astronomical Twilight 6:06 AM MST 6:56 PM MST
Moon 5:32 AM MST (12/30) 4:01 PM MST (12/30)
Length of Visible Light 10h 45m
Length of Day
9h 48m
Waning Crescent, 4% of the Moon is Illuminated
Dec 30
Waning Crescent
Jan 1
New
Jan 7
First Quarter
Jan 15
Full
Jan 23
Last Quarter

Hourly Weather History & Observations

Time (MST) Temp. Windchill Dew Point Humidity Pressure Visibility Wind Dir Wind Speed Gust Speed Precip Events Conditions
12:15 AM 17.6 °F 9.3 °F 6.8 °F 63% 30.30 in 10.0 mi SSE 5.8 mph - N/A   Clear
12:35 AM 17.6 °F 7.3 °F 6.8 °F 63% 30.31 in 10.0 mi SSE 8.1 mph - N/A   Clear
12:55 AM 17.6 °F 8.2 °F 6.8 °F 63% 30.31 in 10.0 mi SSE 6.9 mph - N/A   Clear
1:15 AM 17.6 °F 8.2 °F 6.8 °F 63% 30.31 in 10.0 mi SSE 6.9 mph - N/A   Clear
1:35 AM 15.8 °F 6.1 °F 6.8 °F 68% 30.32 in 10.0 mi SSE 6.9 mph - N/A   Clear
1:55 AM 15.8 °F 6.1 °F 6.8 °F 68% 30.32 in 10.0 mi SE 6.9 mph - N/A   Clear
2:15 AM 15.8 °F 5.1 °F 6.8 °F 68% 30.33 in 10.0 mi SSE 8.1 mph - N/A   Clear
2:35 AM 15.8 °F 4.2 °F 6.8 °F 68% 30.33 in 10.0 mi SSE 9.2 mph - N/A   Clear
2:55 AM 15.8 °F 4.2 °F 6.8 °F 68% 30.33 in 10.0 mi SSE 9.2 mph - N/A   Clear
3:15 AM 15.8 °F 5.1 °F 6.8 °F 68% 30.32 in 10.0 mi SSE 8.1 mph - N/A   Clear
3:35 AM 15.8 °F 6.1 °F 6.8 °F 68% 30.32 in 10.0 mi SSE 6.9 mph - N/A   Clear
3:55 AM 15.8 °F 5.1 °F 6.8 °F 68% 30.33 in 10.0 mi SE 8.1 mph - N/A   Clear
4:15 AM 15.8 °F 5.1 °F 6.8 °F 68% 30.32 in 10.0 mi SSE 8.1 mph - N/A   Clear
4:35 AM 17.6 °F 6.4 °F 6.8 °F 63% 30.31 in 10.0 mi SE 9.2 mph - N/A   Clear
4:55 AM 17.6 °F 6.4 °F 5.0 °F 58% 30.30 in 10.0 mi SE 9.2 mph - N/A   Clear
5:15 AM 17.6 °F 6.4 °F 5.0 °F 58% 30.31 in 10.0 mi SSE 9.2 mph - N/A   Clear
5:35 AM 17.6 °F 6.4 °F 6.8 °F 63% 30.31 in 10.0 mi SSE 9.2 mph - N/A   Clear
5:55 AM 17.6 °F 6.4 °F 6.8 °F 63% 30.31 in 10.0 mi SSE 9.2 mph - N/A   Clear
6:15 AM 17.6 °F 7.3 °F 5.0 °F 58% 30.31 in 10.0 mi SE 8.1 mph - N/A   Clear
6:35 AM 17.6 °F 5.7 °F 5.0 °F 58% 30.32 in 10.0 mi SSE 10.4 mph - N/A   Clear
6:55 AM 17.6 °F 6.4 °F 5.0 °F 58% 30.32 in 10.0 mi SSE 9.2 mph - N/A   Clear
7:15 AM 17.6 °F 8.2 °F 6.8 °F 63% 30.34 in 10.0 mi SE 6.9 mph - N/A   Clear
7:35 AM 17.6 °F 7.3 °F 5.0 °F 58% 30.35 in 10.0 mi SE 8.1 mph - N/A   Clear
7:55 AM 17.6 °F 9.3 °F 5.0 °F 58% 30.36 in 10.0 mi SE 5.8 mph - N/A   Clear
8:15 AM 19.4 °F 10.4 °F 6.8 °F 58% 30.37 in 10.0 mi SSE 6.9 mph - N/A   Clear
8:35 AM 23.0 °F 14.7 °F 8.6 °F 54% 30.37 in 10.0 mi SE 6.9 mph - N/A   Clear
8:55 AM 24.8 °F 16.9 °F 8.6 °F 50% 30.37 in 10.0 mi SE 6.9 mph - N/A   Clear
9:15 AM 28.4 °F 23.3 °F 10.4 °F 47% 30.37 in 10.0 mi SSE 4.6 mph - N/A   Clear
9:35 AM 33.8 °F 30.8 °F 12.2 °F 41% 30.38 in 10.0 mi SSE 3.5 mph - N/A   Clear
9:55 AM 41.0 °F - 5.0 °F 23% 30.39 in 10.0 mi Calm Calm - N/A   Clear
10:15 AM 44.6 °F - -0.4 °F 15% 30.39 in 10.0 mi Calm Calm - N/A   Clear
10:35 AM 46.4 °F 43.5 °F 1.4 °F 16% 30.39 in 10.0 mi North 5.8 mph - N/A   Clear
10:55 AM 46.4 °F 45.2 °F 1.4 °F 16% 30.39 in 10.0 mi NW 3.5 mph - N/A   Clear
11:15 AM 48.2 °F - 3.2 °F 16% 30.39 in 10.0 mi North 4.6 mph - N/A   Clear
11:35 AM 50.0 °F - 5.0 °F 16% 30.39 in 10.0 mi NW 4.6 mph - N/A   Clear
11:55 AM 50.0 °F - 5.0 °F 16% 30.38 in 10.0 mi NNW 3.5 mph - N/A   Clear
12:15 PM 51.8 °F - 6.8 °F 16% 30.38 in 10.0 mi North 6.9 mph - N/A   Clear
12:35 PM 51.8 °F - 8.6 °F 18% 30.37 in 10.0 mi North 8.1 mph - N/A   Clear
12:55 PM 51.8 °F - 8.6 °F 18% 30.36 in 10.0 mi North 8.1 mph - N/A   Clear
1:15 PM 53.6 °F - 10.4 °F 18% 30.35 in 10.0 mi North 8.1 mph - N/A   Clear
1:35 PM 53.6 °F - 10.4 °F 18% 30.34 in 10.0 mi NNW 5.8 mph - N/A   Clear
1:55 PM 53.6 °F - 14.0 °F 21% 30.34 in 10.0 mi NNE 4.6 mph - N/A   Clear
2:15 PM 53.6 °F - 14.0 °F 21% 30.34 in 10.0 mi North 6.9 mph - N/A   Clear
2:35 PM 53.6 °F - 14.0 °F 21% 30.34 in 10.0 mi North 8.1 mph - N/A   Clear
2:55 PM 51.8 °F - 15.8 °F 24% 30.35 in 10.0 mi NE 9.2 mph - N/A   Clear
3:15 PM 51.8 °F - 15.8 °F 24% 30.35 in 10.0 mi NNE 8.1 mph - N/A   Clear
3:35 PM 50.0 °F - 15.8 °F 26% 30.35 in 10.0 mi NE 8.1 mph - N/A   Clear
3:55 PM 50.0 °F - 15.8 °F 26% 30.35 in 10.0 mi NE 5.8 mph - N/A   Clear
4:15 PM 50.0 °F - 15.8 °F 26% 30.35 in 10.0 mi NNE 3.5 mph - N/A   Clear
4:35 PM 50.0 °F - 15.8 °F 26% 30.36 in 10.0 mi Calm Calm - N/A   Clear
4:55 PM 50.0 °F - 15.8 °F 26% 30.35 in 10.0 mi Calm Calm - N/A   Clear
5:15 PM 48.2 °F - 15.8 °F 27% 30.36 in 10.0 mi Calm Calm - N/A   Clear
5:35 PM 46.4 °F - 15.8 °F 29% 30.36 in 10.0 mi Calm Calm - N/A   Clear
5:55 PM 44.6 °F 42.2 °F 15.8 °F 31% 30.37 in 10.0 mi WNW 4.6 mph - N/A   Clear
6:15 PM 35.6 °F 31.7 °F 17.6 °F 48% 30.37 in 10.0 mi SE 4.6 mph - N/A   Clear
6:35 PM 33.8 °F 28.6 °F 17.6 °F 52% 30.37 in 10.0 mi SSE 5.8 mph - N/A   Clear
6:55 PM 32.0 °F 24.8 °F 19.4 °F 60% 30.38 in 10.0 mi SSE 8.1 mph - N/A   Clear
7:15 PM 32.0 °F 24.2 °F 19.4 °F 60% 30.38 in 10.0 mi SSE 9.2 mph - N/A   Clear
7:35 PM 30.2 °F 21.9 °F 19.4 °F 64% 30.39 in 10.0 mi SSE 9.2 mph - N/A   Clear
7:55 PM 28.4 °F 20.4 °F 19.4 °F 69% 30.39 in 10.0 mi SSE 8.1 mph - N/A   Clear
8:15 PM 28.4 °F 19.1 °F 19.4 °F 69% 30.40 in 10.0 mi SSE 10.4 mph - N/A   Clear
8:35 PM 28.4 °F 20.4 °F 19.4 °F 69% 30.40 in 10.0 mi SE 8.1 mph - N/A   Clear
8:55 PM 28.4 °F 19.1 °F 17.6 °F 64% 30.40 in 10.0 mi SSE 10.4 mph - N/A   Clear
9:15 PM 28.4 °F 19.7 °F 17.6 °F 64% 30.41 in 10.0 mi SE 9.2 mph - N/A   Clear
9:35 PM 26.6 °F 16.8 °F 17.6 °F 69% 30.40 in 10.0 mi SSE 10.4 mph - N/A   Clear
9:55 PM 26.6 °F 18.2 °F 17.6 °F 69% 30.41 in 10.0 mi SSE 8.1 mph - N/A   Clear
10:15 PM 26.6 °F 17.5 °F 17.6 °F 69% 30.40 in 10.0 mi SE 9.2 mph - N/A   Clear
10:35 PM 26.6 °F 17.5 °F 17.6 °F 69% 30.40 in 10.0 mi SE 9.2 mph - N/A   Clear
10:55 PM 26.6 °F 17.5 °F 17.6 °F 69% 30.41 in 10.0 mi SSE 9.2 mph - N/A   Clear
11:15 PM 24.8 °F 15.3 °F 17.6 °F 74% 30.40 in 10.0 mi SE 9.2 mph - N/A   Clear
11:35 PM 24.8 °F 16.1 °F 17.6 °F 74% 30.40 in 10.0 mi SE 8.1 mph - N/A   Clear
11:55 PM 26.6 °F 17.5 °F 17.6 °F 69% 30.40 in 10.0 mi SE 9.2 mph - N/A   Clear